Simultaneous Nadir Overpasses (SNOs) Predictions

Prediction of SNOs between AQUA and NOAA-19 Satellite Orbit:

Table of predicted SNOs for the next 14.0 days since TLE Epoch: 4/20/2017
Index Date (AQUA) Time (AQUA) Lat,Lon (AQUA) SZA (AQUA ) Date (NOAA-19) Time (NOAA-19) Lat,Lon (NOAA-19) SZA (NOAA-19 ) Distance(km) Time Diff (sec)
1 04/21/2017 00:56:12 80.95, 125.66 71.24 04/21/2017 00:55:21 80.96, 125.70 71.26 0.83 51
2 04/21/2017 01:45:39 -80.97, -66.88 108.75 04/21/2017 01:46:23 -80.95, -66.91 108.77 1.36 44
3 04/23/2017 06:29:55 -80.94,-137.63 109.54 04/23/2017 06:29:14 -80.96,-137.76 109.50 2.67 41
4 04/23/2017 07:19:22 80.95, 29.85 70.48 04/23/2017 07:20:12 80.95, 29.74 70.47 1.96 50
5 04/25/2017 12:03:39 80.96, -41.29 69.76 04/25/2017 12:03:03 80.96, -41.36 69.78 1.25 36
6 04/25/2017 12:53:05 -80.95, 126.52 110.28 04/25/2017 12:54:05 -80.95, 126.47 110.30 1.25 60
7 04/27/2017 17:37:22 -80.96, 55.33 110.97 04/27/2017 17:36:57 -80.96, 55.17 110.94 2.90 25
8 04/27/2017 18:26:48 80.94,-136.83 68.99 04/27/2017 18:27:53 80.95,-137.00 68.99 3.34 65
9 04/29/2017 23:11:05 80.95, 151.93 68.33 04/29/2017 23:10:44 80.96, 151.84 68.35 1.73 21
10 04/30/2017 00:00:24 -80.75, -37.87 112.10 04/30/2017 00:01:27 -80.84, -32.91 112.53 88.76 63
11 05/02/2017 04:44:47 -80.96,-111.54 112.35 05/02/2017 04:44:38 -80.96,-111.71 112.32 2.91 9




NCC Satellite Simultaneous Nadir Overpasses (SNOs) Prediction Service
